Weather History for West Memphis, AR

Change the Weather History Date:

Saturday, October 29, 2011

  Actual Average Record
Temperature  
Mean Temperature 47 °F -  
Max Temperature 63 °F 70 °F 84 °F (1971)
Min Temperature 32 °F 48 °F 32 °F (2008)
Degree Days  
Heating Degree Days 18    
Moisture  
Dew Point 33 °F    
Average Humidity 80    
Maximum Humidity 100    
Minimum Humidity 22    
Precipitation  
Precipitation 0.00 in - - ()
Sea Level Pressure  
Sea Level Pressure 30.18 in    
Wind  
Wind Speed 1 mph (NW)    
Max Wind Speed 8 mph    
Max Gust Speed -    
Visibility 6 miles    
Events Fog    
Averages and records for this station are not official NWS values.
T = Trace of Precipitation, MM = Missing Value Source: NWS Daily Summary

Daily Weather History Graph

Daily Weather History Graph

Search for Another Location

Airport:

Trip Planner

Search our weather history database for the weather conditions in past years. The results will help you decide how hot, cold, wet, or windy it might be!

Date:

Astronomy

Oct. 29, 2011 Rise Set
Actual Time 7:19 AM CDT 6:09 PM CDT
Civil Twilight 6:53 AM CDT 6:35 PM CDT
Nautical Twilight 6:23 AM CDT 7:05 PM CDT
Astronomical Twilight 5:53 AM CDT 7:35 PM CDT
Moon 10:33 AM CDT (10/29) 8:40 PM CDT (10/29)
Length of Visible Light 11h 42m
Length of Day
10h 50m
Waxing Crescent, 12% of the Moon is Illuminated
Oct 29
Waxing Crescent
Nov 2
First Quarter
Nov 10
Full
Nov 18
Last Quarter
Nov 25
New

Hourly Weather History & Observations

Time (CDT) Temp. Windchill Dew Point Humidity Pressure Visibility Wind Dir Wind Speed Gust Speed Precip Events Conditions
12:53 AM 36.0 °F - 35.1 °F 97% 30.20 in 5.0 mi Calm Calm - N/A   Clear
1:45 AM 35.6 °F - 35.6 °F 100% 30.20 in 1.8 mi Calm Calm - N/A   Clear
1:53 AM 35.1 °F - 34.0 °F 96% 30.20 in 1.2 mi Calm Calm - N/A   Clear
1:56 AM 35.6 °F - 35.6 °F 100% 30.19 in 4.0 mi Calm Calm - N/A   Clear
2:10 AM 35.6 °F - 33.8 °F 93% 30.19 in 2.0 mi Calm Calm - N/A   Clear
2:19 AM 35.6 °F - 33.8 °F 93% 30.18 in 8.0 mi Calm Calm - N/A   Clear
2:53 AM 35.1 °F - 34.0 °F 96% 30.18 in 2.5 mi Calm Calm - N/A   Clear
3:09 AM 35.6 °F - 33.8 °F 93% 30.17 in 5.0 mi Calm Calm - N/A   Clear
3:43 AM 35.6 °F - 35.6 °F 100% 30.17 in 1.8 mi Calm Calm - N/A   Clear
3:53 AM 34.0 °F - 34.0 °F 100% 30.17 in 1.5 mi Calm Calm - N/A   Clear
4:01 AM 35.6 °F - 35.6 °F 100% 30.16 in 2.5 mi Calm Calm - N/A   Clear
4:13 AM 33.8 °F - 33.8 °F 100% 30.16 in 6.0 mi Calm Calm - N/A   Clear
4:21 AM 33.8 °F - 33.8 °F 100% 30.16 in 1.5 mi Calm Calm - N/A   Clear
4:27 AM 33.8 °F - 33.8 °F 100% 30.16 in 0.5 mi Calm Calm - N/A Fog Fog
4:33 AM 33.8 °F - 33.8 °F 100% 30.16 in 1.0 mi Calm Calm - N/A   Clear
4:38 AM 33.8 °F - 32.0 °F 93% 30.16 in 3.0 mi Calm Calm - N/A   Clear
4:40 AM 33.8 °F - 33.8 °F 100% 30.16 in 1.8 mi Calm Calm - N/A   Clear
4:44 AM 33.8 °F - 32.0 °F 93% 30.16 in 0.8 mi Calm Calm - N/A   Mist
5:01 AM 33.8 °F - 33.8 °F 100% 30.16 in 1.0 mi Calm Calm - N/A   Mist
5:20 AM 32.0 °F - 30.2 °F 93% 30.16 in 1.0 mi Calm Calm - N/A   Clear
5:29 AM 33.8 °F - 32.0 °F 93% 30.16 in 3.0 mi Calm Calm - N/A   Clear
5:34 AM 32.0 °F - 32.0 °F 100% 30.17 in 1.8 mi Calm Calm - N/A   Clear
5:53 AM 34.0 °F - 34.0 °F 100% 30.17 in 6.0 mi Calm Calm - N/A   Clear
6:53 AM 33.1 °F - 32.0 °F 96% 30.19 in 6.0 mi Calm Calm - N/A   Clear
7:37 AM 32.0 °F - 32.0 °F 100% 30.19 in 2.5 mi Calm Calm - N/A   Clear
7:46 AM 35.6 °F 32.8 °F 33.8 °F 93% 30.20 in 8.0 mi West 3.5 mph - N/A   Clear
7:53 AM 37.0 °F 33.3 °F 35.1 °F 93% 30.21 in 10.0 mi West 4.6 mph - N/A   Clear
8:53 AM 43.0 °F 40.3 °F 37.0 °F 80% 30.23 in 10.0 mi WNW 4.6 mph - N/A   Clear
9:53 AM 48.9 °F - 37.0 °F 64% 30.25 in 10.0 mi NW 8.1 mph - N/A   Clear
10:53 AM 54.0 °F - 36.0 °F 51% 30.25 in 10.0 mi NNW 6.9 mph - N/A   Clear
11:53 AM 59.0 °F - 34.0 °F 39% 30.25 in 10.0 mi North 6.9 mph - N/A   Clear
12:53 PM 61.0 °F - 25.0 °F 25% 30.22 in 10.0 mi NNW 6.9 mph - N/A   Clear
1:53 PM 61.0 °F - 24.1 °F 24% 30.19 in 10.0 mi NNW 8.1 mph - N/A   Clear
2:53 PM 62.1 °F - 23.0 °F 22% 30.17 in 10.0 mi NW 8.1 mph - N/A   Clear
3:53 PM 62.1 °F - 25.0 °F 24% 30.16 in 10.0 mi NNW 6.9 mph - N/A   Clear
4:53 PM 61.0 °F - 24.1 °F 24% 30.15 in 10.0 mi North 4.6 mph - N/A   Clear
5:53 PM 54.0 °F - 32.0 °F 43% 30.15 in 10.0 mi Calm Calm - N/A   Clear
7:53 PM 46.0 °F - 34.0 °F 63% 30.16 in 10.0 mi Calm Calm - N/A   Clear
8:53 PM 46.0 °F - 32.0 °F 58% 30.16 in 10.0 mi Calm Calm - N/A   Clear
9:53 PM 46.9 °F - 30.9 °F 54% 30.16 in 10.0 mi Calm Calm - N/A   Clear
10:53 PM 41.0 °F 38.0 °F 33.1 °F 73% 30.17 in 10.0 mi South 4.6 mph - N/A   Clear
11:53 PM 37.0 °F - 32.0 °F 82% 30.17 in 10.0 mi Calm Calm - N/A   Clear